Location: Academy at Carrie F Thomas
(32.8490°N, 97.2053°W)
Time: 19:28:06
(UTC+00:00)

Cosmos 1515 Rocket - Pass Details

Date: 28 June 2022
Orbit: 604 x 630 km, 82.5° (Epoch: 17 August)

Event Time Altitude Azimuth Distance (km) Brightness Sun altitude
Rises 08:48:00 0° 20° (NNE) 2,899 8.2 -25.2°
Reaches altitude 10° 08:52:02 10° 57° (ENE) 1,979 7.0 -24.7°
Maximum altitude 08:53:14 11° 73° (ENE) 1,911 6.7 -24.6°
Drops below altitude 10° 08:54:26 10° 89° (E) 1,971 6.6 -24.4°
Sets 08:58:24 0° 126° (SE) 2,862 7.0 -23.9°
